When you browse on this site, cookies collect data to enhance your experience and personalize the content and advertising you see.
Visit our Privacy Policy to learn more. By continuing to use the site, you agree to this use of cookies and data.
  • In Spain
  • List of Countries
  • For 7 days
  • Water Temperature
  • Weather Map
  • Weather Widgets
  • user-avatar
    Login

    Hourly Weather Prohodnoe

    Today, 20 August, Tuesday

    Time Temperature Precipitation Wind Pressure Humidity
    00:00 +15°C° 0 mm 0 mps 742 mmHg 87%
    01:00 +15°C° 0 mm 0 mps 742 mmHg 87%
    02:00 +15°C° 0 mm 0 mps 742 mmHg 88%
    03:00 +15°C° 0 mm 0 mps 743 mmHg 88%
    04:00 +15°C° 0 mm 0 mps 743 mmHg 88%
    05:00 +15°C° 0 mm 0 mps 743 mmHg 88%
    06:00 +16°C° 0 mm 0 mps 743 mmHg 83%
    07:00 +18°C° 0 mm 0 mps 743 mmHg 77%
    08:00 +20°C° 0 mm 0 mps 744 mmHg 71%
    09:00 +21°C° 0 mm 0 mps 744 mmHg 66%
    10:00 +24°C° 0 mm 1 mps 744 mmHg 60%
    11:00 +26°C° 0 mm 1 mps 744 mmHg 55%
    12:00 +26°C° 0 mm 1 mps 744 mmHg 53%
    13:00 +26°C° 0 mm 1 mps 744 mmHg 52%
    14:00 +27°C° 0 mm 1 mps 744 mmHg 50%
    15:00 +27°C° 0 mm 1 mps 744 mmHg 54%
    16:00 +26°C° 0 mm 1 mps 744 mmHg 58%
    17:00 +26°C° 0 mm 1 mps 743 mmHg 63%
    18:00 +24°C° 0 mm 1 mps 744 mmHg 66%
    19:00 +21°C° 0 mm 0 mps 744 mmHg 69%
    20:00 +19°C° 0 mm 0 mps 744 mmHg 73%
    21:00 +19°C° 0 mm 0 mps 744 mmHg 74%
    22:00 +18°C° 0 mm 0 mps 744 mmHg 75%
    23:00 +20°C° 0 mm 1 mps 744 mmHg 76%

    Tomorrow, 21 August, Wednesday

    Time Temperature Precipitation Wind Pressure Humidity
    00:00 +20°C° 0 mm 1 mps 744 mmHg 78%
    01:00 +19°C° 0 mm 1 mps 744 mmHg 79%
    02:00 +19°C° 0 mm 1 mps 744 mmHg 80%
    03:00 +19°C° 0 mm 1 mps 744 mmHg 81%
    04:00 +19°C° 0 mm 1 mps 744 mmHg 82%
    05:00 +17°C° 0 mm 0 mps 744 mmHg 83%
    06:00 +20°C° 0 mm 1 mps 744 mmHg 78%
    07:00 +22°C° 0 mm 1 mps 744 mmHg 73%
    08:00 +24°C° 0 mm 1 mps 745 mmHg 69%
    09:00 +25°C° 0 mm 1 mps 745 mmHg 65%
    10:00 +24°C° 0 mm 0 mps 745 mmHg 61%
    11:00 +25°C° 0 mm 0 mps 745 mmHg 58%
    12:00 +28°C° 0 mm 1 mps 744 mmHg 56%
    13:00 +28°C° 0 mm 1 mps 744 mmHg 55%
    14:00 +29°C° 0 mm 1 mps 744 mmHg 53%
    15:00 +28°C° 0 mm 1 mps 744 mmHg 57%
    16:00 +28°C° 0 mm 1 mps 743 mmHg 60%
    17:00 +28°C° 0 mm 1 mps 743 mmHg 64%
    18:00 +26°C° 0 mm 1 mps 743 mmHg 67%
    19:00 +25°C° 0 mm 1 mps 743 mmHg 71%
    20:00 +23°C° 0 mm 1 mps 743 mmHg 75%
    21:00 +21°C° 0 mm 2 mps 743 mmHg 76%
    22:00 +21°C° 0 mm 2 mps 743 mmHg 78%
    23:00 +20°C° 0 mm 2 mps 743 mmHg 79%

    Day after tomorrow, 22 August, Thursday

    Time Temperature Precipitation Wind Pressure Humidity
    00:00 +20°C° 0 mm 2 mps 743 mmHg 80%
    01:00 +20°C° 0 mm 1 mps 743 mmHg 82%
    02:00 +20°C° 0 mm 1 mps 743 mmHg 83%
    03:00 +20°C° 0 mm 1 mps 742 mmHg 84%
    04:00 +19°C° 0 mm 1 mps 742 mmHg 84%
    05:00 +19°C° 0 mm 1 mps 742 mmHg 85%
    06:00 +21°C° 0 mm 1 mps 742 mmHg 80%
    07:00 +22°C° 0 mm 1 mps 742 mmHg 75%
    08:00 +24°C° 0 mm 1 mps 742 mmHg 69%
    09:00 +25°C° 0 mm 1 mps 742 mmHg 66%
    10:00 +26°C° 0 mm 1 mps 742 mmHg 62%
    11:00 +28°C° 0 mm 1 mps 742 mmHg 59%
    12:00 +28°C° 0 mm 1 mps 742 mmHg 58%
    13:00 +28°C° 0 mm 1 mps 742 mmHg 56%
    14:00 +28°C° 0 mm 1 mps 742 mmHg 55%
    15:00 +28°C° 0.5 mm 2 mps 742 mmHg 61%
    16:00 +27°C° 0.5 mm 2 mps 742 mmHg 67%
    17:00 +26°C° 0.5 mm 3 mps 742 mmHg 73%
    18:00 +24°C° 0.5 mm 3 mps 742 mmHg 79%
    19:00 +21°C° 0.5 mm 4 mps 742 mmHg 85%
    20:00 +20°C° 0.5 mm 5 mps 742 mmHg 92%
    21:00 +19°C° 0 mm 5 mps 742 mmHg 92%
    22:00 +18°C° 0 mm 4 mps 743 mmHg 92%
    23:00 +18°C° 0 mm 4 mps 743 mmHg 93%

    23 August, Friday

    Time Temperature Precipitation Wind Pressure Humidity
    00:00 +17°C° 0 mm 4 mps 743 mmHg 92%
    01:00 +17°C° 0 mm 4 mps 743 mmHg 92%
    02:00 +15°C° 0 mm 4 mps 743 mmHg 92%
    03:00 +15°C° 0.1 mm 4 mps 743 mmHg 92%
    04:00 +15°C° 0.1 mm 4 mps 743 mmHg 92%
    05:00 +14°C° 0.1 mm 4 mps 744 mmHg 93%
    06:00 +15°C° 0.1 mm 4 mps 744 mmHg 89%
    07:00 +17°C° 0.1 mm 4 mps 744 mmHg 85%
    08:00 +17°C° 0.1 mm 5 mps 744 mmHg 82%
    09:00 +19°C° 0 mm 5 mps 744 mmHg 77%
    10:00 +20°C° 0 mm 5 mps 744 mmHg 73%
    11:00 +21°C° 0 mm 5 mps 744 mmHg 68%
    12:00 +21°C° 0 mm 5 mps 744 mmHg 66%
    13:00 +22°C° 0 mm 4 mps 744 mmHg 64%
    14:00 +22°C° 0 mm 4 mps 744 mmHg 62%
    15:00 +22°C° 0 mm 4 mps 744 mmHg 65%
    16:00 +21°C° 0 mm 3 mps 744 mmHg 68%
    17:00 +21°C° 0 mm 3 mps 744 mmHg 70%
    18:00 +20°C° 0 mm 3 mps 744 mmHg 73%
    19:00 +18°C° 0 mm 2 mps 744 mmHg 76%
    20:00 +17°C° 0 mm 2 mps 744 mmHg 79%
    21:00 +16°C° 0 mm 2 mps 745 mmHg 80%
    22:00 +16°C° 0 mm 2 mps 745 mmHg 81%
    23:00 +15°C° 0 mm 2 mps 745 mmHg 82%

    24 August, Saturday

    Time Temperature Precipitation Wind Pressure Humidity
    00:00 +15°C° 0 mm 2 mps 745 mmHg 83%
    01:00 +14°C° 0 mm 2 mps 745 mmHg 84%
    02:00 +14°C° 0 mm 2 mps 745 mmHg 85%
    03:00 +13°C° 0 mm 2 mps 745 mmHg 85%
    04:00 +13°C° 0 mm 2 mps 745 mmHg 85%
    05:00 +12°C° 0 mm 3 mps 745 mmHg 85%
    06:00 +13°C° 0 mm 3 mps 746 mmHg 81%
    07:00 +16°C° 0 mm 3 mps 746 mmHg 77%
    08:00 +17°C° 0 mm 3 mps 746 mmHg 73%
    09:00 +19°C° 0 mm 3 mps 746 mmHg 67%
    10:00 +20°C° 0 mm 3 mps 746 mmHg 60%
    11:00 +21°C° 0 mm 3 mps 746 mmHg 53%
    12:00 +21°C° 0 mm 3 mps 746 mmHg 51%
    13:00 +22°C° 0 mm 3 mps 746 mmHg 49%
    14:00 +23°C° 0 mm 2 mps 746 mmHg 47%
    15:00 +23°C° 0 mm 2 mps 746 mmHg 51%
    16:00 +21°C° 0 mm 2 mps 746 mmHg 55%
    17:00 +21°C° 0 mm 2 mps 745 mmHg 60%
    18:00 +20°C° 0 mm 1 mps 745 mmHg 62%
    19:00 +19°C° 0 mm 1 mps 745 mmHg 65%
    20:00 +15°C° 0 mm 0 mps 745 mmHg 68%
    21:00 +16°C° 0 mm 1 mps 746 mmHg 68%
    22:00 +15°C° 0 mm 1 mps 746 mmHg 69%
    23:00 +15°C° 0 mm 1 mps 746 mmHg 69%

    25 August, Sunday

    Time Temperature Precipitation Wind Pressure Humidity
    00:00 +15°C° 0 mm 1 mps 746 mmHg 71%
    01:00 +14°C° 0 mm 2 mps 746 mmHg 72%
    02:00 +14°C° 0 mm 2 mps 745 mmHg 73%
    03:00 +14°C° 0 mm 2 mps 745 mmHg 74%
    04:00 +13°C° 0 mm 2 mps 745 mmHg 76%
    05:00 +13°C° 0 mm 2 mps 745 mmHg 78%
    06:00 +15°C° 0 mm 2 mps 745 mmHg 75%
    07:00 +16°C° 0 mm 2 mps 745 mmHg 73%
    08:00 +18°C° 0 mm 3 mps 745 mmHg 70%
    09:00 +19°C° 0 mm 3 mps 745 mmHg 67%
    10:00 +21°C° 0 mm 3 mps 745 mmHg 63%
    11:00 +22°C° 0 mm 3 mps 745 mmHg 59%
    12:00 +22°C° 0 mm 3 mps 744 mmHg 58%
    13:00 +22°C° 0 mm 4 mps 744 mmHg 56%
    14:00 +23°C° 0 mm 4 mps 744 mmHg 55%
    15:00 +22°C° 0 mm 3 mps 743 mmHg 59%
    16:00 +22°C° 0 mm 3 mps 743 mmHg 62%
    17:00 +23°C° 0 mm 2 mps 743 mmHg 66%
    18:00 +20°C° 0 mm 2 mps 743 mmHg 70%
    19:00 +18°C° 0 mm 2 mps 743 mmHg 74%
    20:00 +17°C° 0 mm 2 mps 743 mmHg 78%
    21:00 +16°C° 0 mm 2 mps 743 mmHg 81%
    22:00 +16°C° 0 mm 2 mps 743 mmHg 83%
    23:00 +16°C° 0 mm 2 mps 743 mmHg 85%
    Show more